Location: Cieszkowy
(50.3290°N, 20.5336°E)
Time: 12:01:30
(UTC+00:00)

Cosmos 2297 Rocket - Pass Details

Date: 15 June 2024
Orbit: 838 x 843 km, 71.0° (Epoch: 16 July)

Event Time Altitude Azimuth Distance (km) Brightness Sun altitude
Exits shadow 00:24:31 - 254° (WSW) 3,024 4.7 -12.7°
Reaches altitude 10° 00:26:18 10° 264° (W) 2,457 4.3 -12.6°
Maximum altitude 00:30:55 25° 319° (NW) 1,634 4.0 -12.3°
Drops below altitude 10° 00:35:33 10° 14° (NNE) 2,469 6.0 -11.9°
Sets 00:38:27 0° 27° (NNE) 3,408 7.6 -11.7°
